Location: Klickitat County Star Party
(45.8642°N, 120.6771°W)
Time: 10:37:29
(UTC-07:00)

OTV 5 (USA 277) - Visible Passes

Search period start: 20 October 2019 00:00
Search period end: 30 October 2019 00:00
Orbit: 310 x 324 km, 54.5° (Epoch: 17 October)

Date Brightness Start Highest point End Pass type
(mag) Time Alt. Az. Time Alt. Az. Time Alt. Az.
20 Oct ? 05:39:39 28° SSE 05:39:39 28° SSE 05:41:13 10° SE visible
21 Oct ? 05:54:26 14° S 05:54:26 14° S 05:55:03 10° S visible
28 Oct ? 19:11:15 10° S 19:13:13 21° SE 19:13:13 21° SE visible
29 Oct ? 19:25:08 10° SW 19:27:41 53° SSE 19:27:41 53° SSE visible
